Regional Weather Roundup
Issued by NWS Upton, NY

Current Version | Previous Version | Text Only | Print | Product List | Glossary Off
Versions: 1 2 3 4 5 6 7 8 9 10 11 12 13 14 15 16 17 18 19 20 21 22 23 24 25 26 27 28 29 30 31 32 33 34 35 36 37 38 39 40 41 42 43 44 45 46 47 48 49 50
000 ASUS41 KOKX 272004 RWROKX REGIONAL WEATHER ROUNDUP NATIONAL WEATHER SERVICE NEW YORK NY 400 PM EDT TUE SEP 27 2016 NOTE: "FAIR" INDICATES FEW OR NO CLOUDS BELOW 12,000 FEET WITH NO SIGNIFICANT WEATHER AND/OR OBSTRUCTIONS TO VISIBILITY. NYZ071-072-176-178-NJZ106-104-272100- NEW YORK CITY METRO AREA CITY SKY/WX TMP DP RH WIND PRES REMARKS Central Park MOSUNNY 72 55 55 S3 29.90F LaGuardia APRT PTSUNNY 75 54 47 VRB7 29.87F Kennedy INTL PTSUNNY 73 53 49 SW10 29.89F Newark/Liberty PTSUNNY 75 51 43 SW7 29.88F Bronx Bot Gard N/A 73 52 46 W3 29.88F Wall St Helipt MOCLDY 75 57 53 S5 29.89F Teterboro MOSUNNY 76 49 38 W6 29.86F $$ NYZ177-179-078>081-272100- LONG ISLAND NEW YORK CITY SKY/WX TMP DP RH WIND PRES REMARKS Farmingdale CLOUDY 73 60 63 S12 29.89S MacArthur/ISP PTSUNNY 70 62 76 S8 29.89S Shirley CLOUDY 70 63 78 S8 29.90S Riverhead NOT AVBL Westhampton PTSUNNY 70 63 78 VRB7 29.91S Southampton N/A 68 64 88 S9 29.87R Bridgehampton N/A 70 64 83 CALM 29.76R East Hampton FAIR 69 62 79 S5 29.90S Montauk N/A 69 62 78 SW3 29.91S $$ NYZ052-065-067-272100- HUDSON VALLEY CITY SKY/WX TMP DP RH WIND PRES REMARKS White Plains CLOUDY 72 54 53 CALM 29.88F Newburgh MOSUNNY 72 52 49 SW8 29.90F Montgomery SUNNY 74 49 41 S10 29.87F Poughkeepsie MOSUNNY 73 50 44 S3 29.87F Albany MOSUNNY 72 49 44 S8 29.87F $$ NJZ001-105-106-008-010-013-015-019>022-104-272100- NEW JERSEY CITY SKY/WX TMP DP RH WIND PRES REMARKS Newark/Liberty PTSUNNY 75 51 43 SW7 29.88F Teterboro MOSUNNY 76 49 38 W6 29.86F Caldwell CLOUDY 74 52 46 NW6 29.88F Morristown NOT AVBL Somerville SUNNY 74 52 46 VRB5 29.87F Linden NOT AVBL Sussex MOSUNNY 72 52 49 VRB3 29.89F Abdover N/A 72 48 42 S5 29.89F Trenton MOSUNNY 74 48 39 VRB6 29.89F Millville CLOUDY 69 63 81 S3 29.91F Atlantic City CLOUDY 67 61 81 S5 29.91F Wrightstown MOSUNNY 74 57 54 VRB2 29.86F Toms River CLOUDY 73 61 65 S5 29.90F Belmar CLOUDY 72 59 63 VRB6 29.90F $$ PAZ047>061-062-071-272100- EASTERN PENNSYLVANIA CITY SKY/WX TMP DP RH WIND PRES REMARKS Philadelphia PTSUNNY 74 49 41 SW7 29.90F Allentown SUNNY 74 46 36 SW7 29.89F Scranton SUNNY 72 44 36 SW9 29.88F $$ CTZ002-004>006-009-010-012-RIZ004-006-007-MAZ004-011-015-272100- SOUTHERN NEW ENGLAND IN CT CITY SKY/WX TMP DP RH WIND PRES REMARKS Bradley INTL CLOUDY 73 55 53 CALM 29.89F Hartford CLOUDY 72 58 61 E5 29.88F Danbury MOSUNNY 72 51 47 SW3 29.89F Wtrbury/Oxford MOSUNNY 72 52 49 CALM 29.93S Bridgeport MOSUNNY 71 60 68 S7 29.89F Meriden MOSUNNY 75 55 49 CALM 29.88F New Haven CLOUDY 70 60 70 S7 29.89F Chester FAIR 70 61 73 MISG 29.90S Groton CLOUDY 71 62 73 S7 29.89F Wilimantic CLOUDY 73 60 63 CALM 29.89F IN RI CITY SKY/WX TMP DP RH WIND PRES REMARKS Providence CLOUDY 71 60 68 S6 29.90R Block Island CLOUDY 68 62 81 CALM 29.90F Westerly CLOUDY 70 59 68 S7 29.90F IN MA CITY SKY/WX TMP DP RH WIND PRES REMARKS Boston CLOUDY 69 60 73 SE6 29.89S Worcester CLOUDY 68 53 58 CALM 29.91S Westfield SUNNY 73 52 47 E3 29.89S Provincetown PTSUNNY 66 61 84 W3 29.91R Nantucket CLOUDY 66 65 96 SW8 29.92R $$ ANZ330-335-338-340-345-350-353-355-272100- COASTAL MARINE OBSERVATIONS STATION/POSITION TIME SKY/WX TEMP WIND PRES VSBY WAVE AIR SEA DIR/SP/G HT/PER (UTC) (F) (DEG/KT/KT) (MB) (MI) (FT/S) NY HARB ENTRANCE 1850 69 71 250/ 4/ 6 1012.8 3/ 6 20S FIRE ISLAND 1850 68 70 240/ 6/ 8 1012.8 5/ 6 GREAT SOUTH BAY 1915 69 71 190/ 8/ 10 N/A 23 SSW MONTAUK P 1850 67 68 240/ 2/ 4 1012.8 4/ 6 15 E BARNEGAT LI 1930 71 N/A 4/ 7 HUDSON CANYON 1850 68 69 1013.0 6/ 7 KINGS POINT 1930 74 73 1011.8 EXECUTION ROCKS 1945 73 160/ 2/ 4 N/A CENTRAL LI SOUND 1930 69 73 200/ 4/ 4 N/A 1 EASTERN LI SOUND NOT AVBL ROBBINS REEF 1930 73 240/ 2/ 4 1012.2 $$ >>>>>>>>>>>>>>>>>>>>>>>>>>>> KEY <<<<<<<<<<<<<<<<<<<<<<<<<<< > < > SKY/WX - Sky Condition/Present Weather < > TMP - Temperature in Fahrenheit < > DP - Dew Point in Fahrenheit < > RH - Relative Humidity in Percent < > WIND - Direction (from) and Speed in MPH < > PRES - Mean Sea Level Pressure (inches of Hg) < > WCI - Wind Chill Index < > VSB - VISIBILITY IN MILES < > HX - HEAT INDEX < > TC - TEMPERATURE IN CELSIUS < > VRB - VARIABLE WIND DIRECTION < > < >>>>>>>>>>>>>>>>>>>>>>>>>>>> KEY <<<<<<<<<<<<<<<<<<<<<<<<<<<

USA.gov is the U.S. government's official web portal to all federal, state and local government web resources and services.